383  
ASUS44 KSHV 170110  
RWRSHV  
 
WEATHER ROUNDUP FOR THE FOUR STATE AREA  
NATIONAL WEATHER SERVICE SHREVEPORT LA  
800 PM CDT TUE JUL 16 2019  
 
NOTE: "FAIR" INDICATES FEW OR NO CLOUDS BELOW 12000 FEET  
WITH NO SIGNIFICANT WEATHER AND/OR S TO VISIBILITY
.  
 
!LAZ001-LAZ014-TXZ097-170200  
SHREVEPORT...MONROE...TEXARKANA RADIOS  
 
CITY SKY/WX TMP DP RH WIND PRES REMARKS
 
SHREVEPORT PTCLDY 89 78 70 S8 29.95S HX 103  
MONROE N/A 85 75 72 S8 29.99R  
NATCHITOCHES N/A 87 76 70 N6 29.99R HX 98  
TEXARKANA CLEAR 86 76 71 SW3 29.95S  

 
 
!LAZ001-LAZ014-TXZ097-170200  
OTHER LOCATIONS...  
 
CITY SKY/WX TMP DP RH WIND PRES REMARKS
 
DOWNTOWN SHV PTCLDY 91 76 61 S9 29.95S HX 103  
BOSSIER CITY N/A 89 76 65 S10 29.95R HX 100  
RUSTON N/A 87 75 68 S3 30.01S  
LITTLE ROCK MOCLDY 79 76 90 S6 29.95S  
EL DORADO N/A 84 81 90 CALM 29.97R HX 99  
JACKSON NOT AVBL  
NEW ORLEANS N/A 85 73 67 S8 30.06R  
HOUSTON MOCLDY 87 73 62 S12 29.98S  
LUFKIN CLEAR 84 74 71 S7 29.99S  
TYLER CLEAR 89 73 59 S6 29.96R  
DAL FT WORTH PTCLDY 93 69 45 S14 29.90R HX 98  

 
 
!TXZ136-TXZ165-170200  
TYLER...LUFKIN RADIOS  
 
CITY SKY/WX TMP DP RH WIND PRES REMARKS
 
TYLER CLEAR 89 73 59 S6 29.96R  
GILMER CLEAR 87 73 64 CALM 29.95F  
LONGVIEW CLEAR 90 76 63 S6 29.95R HX 101  
LUFKIN CLEAR 84 74 71 S7 29.99S  

 
 
!TXZ136-TXZ165-170200  
OTHER LOCATIONS...  
 
CITY SKY/WX TMP DP RH WIND PRES REMARKS
 
NACOGDOCHES CLEAR 87 76 69 S8 29.99R  
BEAUMONT N/A 85 77 77 S10 30.00F  
HOUSTON MOCLDY 87 73 62 S12 29.98S  
COLLEGE STN CLEAR 91 74 57 S15 29.96R HX 100  
AUSTIN PTCLDY 91 71 51 S10 29.93R  
DAL FT WORTH PTCLDY 93 69 45 S14 29.90R HX 98  
TEXARKANA CLEAR 86 76 71 SW3 29.95S  
SHREVEPORT PTCLDY 89 78 70 S8 29.95S HX 103  
FORT POLK N/A 84 76 78 S8 30.00R  
LAKE CHARLES N/A 85 78 80 VRB6 30.02F  

 
 
 
CLICK HERE TO GO TO PREVIOUS BULLETINS.

The Nexlab LA Page
The Nexlab TX Page
The Nexlab AR Page
The Nexlab OK Page Main Text Page